Regional Weather Roundup
Issued by NWS

Home | Current Version | Previous Version | Text Only | Print | Product List | Glossary On
Versions: 1 2 3 4 5 6 7 8 9 10 11 12 13 14 15 16 17 18 19 20 21 22 23 24 25 26 27 28 29 30 31 32 33 34 35 36 37 38 39 40 41 42 43 44 45 46 47 48 49 50
000
ASUS42 KTBW 051216
RWRFL
FLORIDA REGIONAL WEATHER ROUNDUP
NATIONAL WEATHER SERVICE TAMPA BAY RUSKIN FL
800 AM EDT SUN JUL 05 2015

NOTE: "FAIR" INDICATES FEW OR NO CLOUDS BELOW 12,000 FEET WITH NO
SIGNIFICANT WEATHER AND/OR OBSTRUCTIONS TO VISIBILITY.


FLZ001>010-012>015-112-114-115-051300-
PANHANDLE FLORIDA

CITY           SKY/WX    TMP DP  RH WIND       PRES   REMARKS
PENSACOLA      CLOUDY    78  77  96 S5        30.12S
PENSACOLA NAS  CLOUDY    78  75  90 CALM      30.11S THUNDER FOG
MILTON NAS     CLOUDY    73  70  90 N3        30.13  THUNDER
CRESTVIEW      CLOUDY    72  70  93 CALM      30.15S
DUKE FIELD     FAIR      73  71  93 CALM      30.12S
VALPARAISO     PTSUNNY   76  73  91 E2        30.12S
MARY ESTHER    CLOUDY    75  72  88 CALM      30.11F
TRI COUNTY     FAIR      71  71 100 CALM      30.15R
PANAMA CITY    FAIR      74  70  87 CALM      30.13R
APALACHICOLA   MOSUNNY   81  75  82 CALM      30.14R

STATION/POSITION SKY/WX   TEMP    WIND        PRES    WAVE   SWELL
                          AIR SEA DIR/SP/G            HT/PER HT/PER
                          (F)     (DEG/KT/KT) (MB)    (FT/S) (FT/S)
30.1N   87.6W              83 84  190/  4/  6 1019.0R   1/ 6   2/ 6
29.2N   88.2W              84 85  220/ 12/ 14 1020.0R   2/ 4
28.8N   86.0W              84 85  190/  6/  6 1020.7R   2/ 5   2/ 5
PANAMA CITY BEAC           77 82   80/  3/  4 1020.0R
CAPE SAN BLAS    NOT AVBL
TOWER C                    83     220/  4/  4 1020.7R
28.5N   84.5W              85 86  160/  4/  6 1020.7R   1/ 8   2/ 8

$$
FLZ011-016>038-118-127-128-134-139-239-051300-
NORTH FLORIDA

CITY           SKY/WX    TMP DP  RH WIND       PRES   REMARKS
MARIANNA       LGT RAIN  72  71  97 CALM      30.14R
TALLAHASSEE    PTSUNNY   75  71  87 SE5       30.14S FOG
PERRY            N/A     76  76 100 CALM      30.16R
CROSS CITY       N/A     77  72  84 CALM      30.15R
LAKE CITY      FAIR      72  72 100 CALM      30.17R
GAINESVILLE    SUNNY     74  71  91 CALM      30.17R
MAYPORT NAS    SUNNY     75  72  90 SW6       30.16R
JACKSONVILLE   MOSUNNY   74  72  93 CALM      30.16R FOG
JAX NAS        MOSUNNY   79  71  76 S3        30.17R
JAX CRAIG      SUNNY     76  72  87 SW3       30.16R
JAX CECIL      SUNNY     72  72 100 CALM      30.17R
FERNANDINA BEA   N/A     79  75  89 SW3       30.15R
ST AUGUSTINE   SUNNY     76  72  87 S5        30.17R

STATION/POSITION SKY/WX   TEMP    WIND        PRES    WAVE   SWELL
                          AIR SEA DIR/SP/G            HT/PER HT/PER
                          (F)     (DEG/KT/KT) (MB)    (FT/S) (FT/S)
SHELL POINT                74      40/  4/  5   N/A
KEATON BEACH               77      50/  3/  3 1021.2R
CEDAR KEY                  84     100/  4/  5 1021.6R
FERNANDINA                 74 81  170/  2/  3 1020.1R
30.7N   81.3W                 77                N/A     2/ 8
MAYPORT                    74 80  190/  2/  3 1021.2R
31.4N   80.9W              78 79  230/ 10/ 12 1021.3R   2/ 8   2/ 8
ST AUGUSTINE               76 72  210/  2/  3 1022.5R

$$
FLZ040-043>046-052-053-057-058-063-144-051300-
INTERIOR CENTRAL FLORIDA

CITY           SKY/WX    TMP DP  RH WIND       PRES   REMARKS
OCALA          SUNNY     73  68  83 CALM      30.18R
THE VILLAGES     N/A    N/A N/A N/A CALM      30.07R
LEESBURG       SUNNY     78  75  90 SE5       30.18R
SANFORD        SUNNY     77  74  90 SE6       30.17R
ORLANDO EXEC   SUNNY     78  76  93 E3        30.17R
ORLANDO INTL   MOSUNNY   78  76  93 SE3       30.17R
KISSIMMEE      SUNNY     79  75  89 CALM      30.17R
WINTER HAVEN   SUNNY     78  73  84 E6        30.18R
LAKELAND       SUNNY     75  73  94 CALM      30.16R
OKEECHOBEE     SUNNY     73  73 100 CALM      30.16R FOG

$$
FLZ041-047-054-059-064-141-147-051300-
EAST CENTRAL FLORIDA

CITY           SKY/WX    TMP DP  RH WIND       PRES   REMARKS
ORMOND BEACH   SUNNY     73  72  94 CALM      30.16R FOG
DAYTONA BEACH  PTSUNNY   77  74  90 CALM      30.17R FOG
DELAND           N/A     73  73 100 CALM      30.18R
NEW SMYRNA BEA SUNNY     77  73  88 SE3       30.17S
JFK SPACE CTR  PTSUNNY   75  73  96 CALM      30.16R
TITUSVILLE     MOSUNNY   75  73  94 CALM      30.17R HAZE
CAPE CANAVERAL PTSUNNY   77  74  91 CALM      30.16R FOG
PATRICK AFB    MOSUNNY   79  78  95 CALM      30.17R
MELBOURNE      MOSUNNY   78  76  93 NW3       30.17R FOG
VERO BEACH     MOSUNNY   80  76  87 CALM      30.16R
FT PIERCE      MOSUNNY   79  77  94 CALM      30.16R
STUART         MOSUNNY   81  75  83 CALM      30.16R

STATION/POSITION SKY/WX   TEMP    WIND        PRES    WAVE   SWELL
                          AIR SEA DIR/SP/G            HT/PER HT/PER
                          (F)     (DEG/KT/KT) (MB)    (FT/S) (FT/S)
28.5N   80.2W              81 81   80/  2/  2 1021.8R
28.9N   78.5W              82 84  170/ 14/ 17 1021.5R
TRIDENT PIER               76 78   40/  2/  2 1021.5R
28.4N   80.5W                 79                N/A     2/ 8
27.5N   80.2W                 79                N/A     1/ 8

$$
FLZ050-056-061-142-242-148-248-149-249-151-251-155-255-
160-260-051300-
WEST CENTRAL FLORIDA

CITY           SKY/WX    TMP DP  RH WIND       PRES   REMARKS
CRYSTAL RIVER  FAIR      73  70  88 CALM      30.16R
INVERNESS      FAIR     N/A N/A N/A CALM      30.17R
BROOKSVILLE    SUNNY     75  71  87 CALM      30.17R
ZEPHYRHILLS    FAIR      72  72 100 CALM      30.17R
CLEARWATER     SUNNY     80  75  84 SE8       30.15R
TAMPA INTL     MOSUNNY   80  73  79 CALM      30.15R
TAMPA EXEC     SUNNY     77  72  83 CALM      30.16R
PLANT CITY     SUNNY     79  75  89 SE5       30.18R
MACDILL AFB    SUNNY     80  78  92 SE8       30.14R
PETER O KNIGHT SUNNY     81  75  83 SE6       30.15R
ST PETERSBURG  SUNNY     81  74  79 S15       30.13R
SARASOTA       SUNNY     77  72  84 SE6       30.14R
VENICE         FAIR      77  73  88 NE6       30.16R

STATION/POSITION SKY/WX   TEMP    WIND        PRES    WAVE   SWELL
                          AIR SEA DIR/SP/G            HT/PER HT/PER
                          (F)     (DEG/KT/KT) (MB)    (FT/S) (FT/S)
CEDAR KEY                  84     100/  4/  5 1021.6R
28.5N   84.5W              85 86  160/  4/  6 1020.7R   1/ 8   2/ 8
27.3N   84.2W                 86                N/A     2/ 4
CLEARWATER BEACH NOT AVBL
MIDDLE TAMPA BAY                  140/ 10/ 12 1020.5R
VENICE                     76 88   70/  7/  8 1020.0R

$$
FLZ066-069-070-075>078-162-262-165-265-051300-
SOUTHWEST FLORIDA AND KEYS

CITY           SKY/WX    TMP DP  RH WIND       PRES   REMARKS
PUNTA GORDA    SUNNY     75  74  96 NE6       30.17R
FT MYERS       SUNNY     77  76  96 SE5       30.13R FOG
SOUTHWEST INTL SUNNY     76  74  93 E3        30.14R FOG
NAPLES         SUNNY     78  76  93 NE5       30.13R FOG
MARCO ISLAND   SUNNY     77  72  83 E3        30.13R
MARATHON       MOSUNNY   85  76  74 SE6       30.12R
KEY WEST NAS   MOSUNNY   85  73  67 SE12      30.12R
KEY WEST INTL  MOSUNNY   84  75  74 SE13      30.13R

STATION/POSITION SKY/WX   TEMP    WIND        PRES    WAVE   SWELL
                          AIR SEA DIR/SP/G            HT/PER HT/PER
                          (F)     (DEG/KT/KT) (MB)    (FT/S) (FT/S)
VENICE                     76 88   70/  7/  8 1020.0R
NAPLES                        87              1020.9R
26.0N   85.6W              85 86  100/  8/ 10 1019.6R   3/10   2/10
DRY TORTUGAS               84     130/ 13/ 15 1019.2R
NW FL BAY                  86     140/ 15/ 18 1019.5
SAND KEY                   84     120/ 14/ 16 1019.9R
SOMBRERO KEY               84     120/ 14/ 15 1020.8R
LONG KEY                   85 86  130/ 11/ 13 1020.9R
MOLASSES REEF              84 85  140/ 13/ 14 1020.3R

$$
FLZ067-068-071>074-168-172>174-051300-
SOUTHEAST FLORIDA

CITY           SKY/WX    TMP DP  RH WIND       PRES   REMARKS
FT LAUDER-EXEC MOSUNNY   85  73  67 SE8       30.14R
FT LAUDERDALE  MOSUNNY   84  74  71 SE9       30.13R
POMPANO BEACH  MOSUNNY   85  74  69 SE9       30.14R
PEMBROKE PINES SUNNY     84  73  69 SE7       30.15R
OPA LOCKA      MOSUNNY   84  74  71 SE8       30.14R
MIAMI          MOSUNNY   84  73  69 SE8       30.14R
WEST KENDALL   MOSUNNY   83  74  74 SE5       30.14R
HOMESTEAD      MOSUNNY   84  73  70 SE7       30.14R

STATION/POSITION SKY/WX   TEMP    WIND        PRES    WAVE   SWELL
                          AIR SEA DIR/SP/G            HT/PER HT/PER
                          (F)     (DEG/KT/KT) (MB)    (FT/S) (FT/S)
PORT EVERGLADES            84     130/ 11/ 15 1020.0R
VIRGINIA KEY               83 88  120/  7/ 11 1019.9R
LAKE WORTH                 84 85  140/ 10/ 12 1019.9R
SETTLEMENT POINT           82     130/  7/  9 1021.9R

$$




USA.gov is the U.S. government's official web portal to all federal, state and local government web resources and services.